Tracking 19794 objects as of 21-Jul-2019
HD Live streaming from Space Station
objects crossing your sky now

SLOSHSAT

Track SLOSHSAT now!
SLOSHSAT is classified as:


NORAD ID: 28544
Int'l Code: 2005-005C
Perigee: 294.4 km
Apogee: 32,703.3 km
Inclination: 6.9 °
Period: 573.7 minutes
Semi major axis: 22869 km
RCS: 0.5011 m2 (medium)
Launch date: February 12, 2005
Source: European Space Agency (ESA)
Launch site: FRENCH GUIANA (FRGUI)
aabbcc
Your satellite tracking list
Your tracking list is empty




NASA's NSSDC Master Catalog

Two Line Element Set (TLE):
1 28544U 05005C   19201.86184064 +.00000150 +00000-0 +21217-3 0  9995
2 28544 006.8775 128.5750 7085525 047.1119 353.5653 02.51019781125924
Source of the keplerian elements: AFSPC